This demonstration page uses our WeatherBlox Daily Observations layout. Learn more.

Left ArrowRight Arrow

Hourly Observations for January 19, 2022

Temp ( °F °C ) Dew Point ( °F °C ) Humidity (%) Winds ( mph kmh ) Pressure ( in mb ) Visibility ( mi km ) Precip ( " mm )
12:59 am 00:59 Clear 29 -1.7 27 -2.8 92 92 Calm 30.25 1025 9 14 0.00 0.00
1:59 am 01:59 Mostly Cloudy 30 -1.1 28 -2.2 92 92 Calm 30.26 1025 9 14 0.00 0.00
2:59 am 02:59 Mostly Cloudy 30 -1.1 28 -2.2 92 92 Calm 30.26 1025 9 14 0.00 0.00
3:59 am 03:59 Mostly Cloudy 30 -1.1 27 -2.8 88 88 S 6 9 30.25 1025 10 16 0.00 0.00
4:59 am 04:59 Mostly Cloudy 31 -0.6 27 -2.8 85 85 S 5 7 30.25 1024 10 16 0.00 0.00
5:59 am 05:59 Clear 33 0.6 26 -3.3 75 75 S 7 11 30.26 1025 10 16 0.00 0.00
6:59 am 06:59 Clear 35 1.7 27 -2.8 72 72 S 6 9 30.26 1025 10 16 0.00 0.00
7:59 am 07:59 Partly Cloudy 38 3.3 28 -2.2 68 68 S 9 15 30.26 1025 10 16 0.00 0.00
8:59 am 08:59 Mostly Cloudy 40 4.4 30 -1.1 68 68 SSW 10 17 30.26 1025 10 16 0.00 0.00
9:59 am 09:59 Sunny 43 6.1 31 -0.6 63 63 SSW 12 19 30.26 1025 10 16 0.00 0.00
10:59 am 10:59 Partly Cloudy 49 9.4 31 -0.6 50 50 SW 13 20 30.25 1024 10 16 0.00 0.00
11:59 am 11:59 Mostly Sunny 53 11.7 30 -1.1 41 41 SW 16 26 30.20 1023 10 16 0.00 0.00
12:59 pm 12:59 Mostly Sunny 57 13.9 28 -2.2 33 33 SW 13 20 30.17 1022 10 16 0.00 0.00
1:59 pm 13:59 Sunny 57 13.9 27 -2.8 32 32 SW 13 20 30.14 1021 10 16 0.00 0.00
2:59 pm 14:59 Sunny 59 15 27 -2.8 29 29 SW 13 20 30.12 1020 10 16 0.00 0.00
3:59 pm 15:59 Partly Cloudy 59 15 27 -2.8 29 29 SW 12 19 30.12 1020 10 16 0.00 0.00
4:59 pm 16:59 Partly Cloudy 57 13.9 25 -3.9 29 29 SW 10 17 30.11 1020 10 16 0.00 0.00
5:59 pm 17:59 Mostly Clear 54 12.2 27 -2.8 35 35 SSW 7 11 30.12 1020 10 16 0.00 0.00
6:59 pm 18:59 Partly Cloudy 54 12.2 28 -2.2 37 37 SSW 8 13 30.12 1020 10 16 0.00 0.00
7:59 pm 19:59 Mostly Cloudy 53 11.7 29 -1.7 40 40 SSW 8 13 30.11 1020 10 16 0.00 0.00
8:59 pm 20:59 Mostly Cloudy 54 12.2 31 -0.6 42 42 SSW 9 15 30.11 1020 10 16 0.00 0.00
9:59 pm 21:59 Partly Cloudy 53 11.7 33 0.6 47 47 SSW 9 15 30.11 1020 10 16 0.00 0.00
10:59 pm 22:59 Mostly Cloudy 51 10.6 34 1.1 52 52 SSW 8 13 30.10 1019 10 16 0.00 0.00
11:59 pm 23:59 Mostly Cloudy 51 10.6 35 1.7 54 54 SSW 7 11 30.10 1019 10 16 0.00 0.00

Powered by AerisWeather